Consulta los datos en tiempo real de la estación municipal de El Brull
| Hora UTC | 20:50 |
|---|---|
| Temperatura | 10.1 ºC |
| Humedad | 83.9 % |
| Presión | 1014.9 hPa |
| Pluja | 0.0 mm |
| Velocidad viento | 1.2 km/h |
| Dirección viento | E |
| Radiación solar | 0.0 W/m² |
| Temperatura (ºC) | Humedad (%) | Presión (hPa) | Velocidad viento (km/h) | Precipitación (mm) | Radiación solar (W/m²) | |||||||||||||
|---|---|---|---|---|---|---|---|---|---|---|---|---|---|---|---|---|---|---|
| Hora UTC | Aire | Humedad | Presión | Vel. | Dir. | Vel. Max | Dir. | Intent. máx 5 min. | Rad. Sol. | |||||||||
| 00:10 | 9.2 | 89.4 | 1014.6 | 1.0 | SE | 4.5 | SE | 0.0 | 0.0 | |||||||||
| 00:20 | 9.2 | 89.0 | 1014.5 | 1.3 | E | 4.1 | ESE | 0.0 | 0.0 | |||||||||
| 00:30 | 9.2 | 88.4 | 1014.5 | 1.0 | E | 3.3 | NE | 0.0 | 0.0 | |||||||||
| 00:40 | 9.1 | 88.4 | 1014.4 | 2.5 | N | 5.8 | NNW | 0.0 | 0.0 | |||||||||
| 00:50 | 8.8 | 89.4 | 1014.3 | 0.9 | N | 4.4 | N | 0.0 | 0.0 | |||||||||
| 01:00 | 8.5 | 89.6 | 1014.3 | 1.3 | N | 5.1 | N | 0.0 | 0.0 | |||||||||
| 01:10 | 8.1 | 90.3 | 1014.1 | 2.0 | N | 5.5 | N | 0.0 | 0.0 | |||||||||
| 01:20 | 8.0 | 91.1 | 1014.1 | 0.9 | E | 2.6 | NE | 0.0 | 0.0 | |||||||||
| 01:30 | 7.9 | 91.2 | 1014.0 | 2.0 | SE | 3.6 | SE | 0.0 | 0.0 | |||||||||
| 01:40 | 7.9 | 91.2 | 1014.0 | 1.9 | ESE | 5.4 | SE | 0.0 | 0.0 | |||||||||
| 01:50 | 7.8 | 90.9 | 1014.1 | 1.9 | ESE | 4.9 | SSE | 0.0 | 0.0 | |||||||||
| 02:00 | 7.9 | 90.2 | 1014.1 | 2.5 | SE | 6.4 | SE | 0.0 | 0.0 | |||||||||
| 02:10 | 7.7 | 89.4 | 1014.0 | 2.5 | SE | 4.7 | SE | 0.0 | 0.0 | |||||||||
| 02:20 | 7.7 | 89.7 | 1013.9 | 2.0 | ESE | 3.4 | SE | 0.0 | 0.0 | |||||||||
| 02:30 | 7.6 | 90.0 | 1013.9 | 0.7 | ESE | 2.1 | ENE | 0.0 | 0.0 | |||||||||
| 02:40 | 7.6 | 90.4 | 1013.8 | 1.1 | ESE | 4.5 | ESE | 0.0 | 0.0 | |||||||||
| 02:50 | 7.7 | 90.5 | 1013.9 | 1.7 | ESE | 4.7 | N | 0.0 | 0.0 | |||||||||
| 03:00 | 7.6 | 90.7 | 1013.9 | 1.8 | ENE | 3.9 | NE | 0.0 | 0.0 | |||||||||
| 03:10 | 7.5 | 91.0 | 1013.8 | 1.5 | NE | 3.5 | ESE | 0.0 | 0.0 | |||||||||
| 03:30 | 7.5 | 90.4 | 1013.8 | 2.8 | SE | 6.1 | SE | 0.0 | 0.0 | |||||||||
| 03:40 | 7.3 | 90.0 | 1013.8 | 1.9 | SE | 6.2 | ESE | 0.0 | 0.0 | |||||||||
| 03:50 | 7.4 | 89.8 | 1013.8 | 1.7 | SSE | 3.8 | S | 0.0 | 0.0 | |||||||||
| 04:00 | 7.3 | 89.7 | 1013.8 | 0.7 | SE | 2.7 | SE | 0.0 | 0.0 | |||||||||
| 04:10 | 7.3 | 89.9 | 1013.9 | 1.0 | SE | 3.1 | ESE | 0.0 | 0.0 | |||||||||
| 04:20 | 7.1 | 89.7 | 1013.8 | 1.3 | N | 4.0 | N | 0.0 | 0.1 | |||||||||
| 04:30 | 6.9 | 90.4 | 1013.7 | 1.5 | N | 5.3 | N | 0.0 | 0.9 | |||||||||
| 04:40 | 6.7 | 91.0 | 1013.8 | 4.2 | N | 5.6 | N | 0.0 | 2.7 | |||||||||
| 04:50 | 6.6 | 91.7 | 1013.8 | 1.3 | NNE | 3.3 | N | 0.0 | 5.9 | |||||||||
| 05:00 | 6.7 | 92.4 | 1013.9 | 0.6 | NE | 2.1 | NNE | 0.0 | 9.6 | |||||||||
| 05:10 | 7.0 | 92.9 | 1013.9 | 0.7 | ESE | 2.2 | ESE | 0.0 | 13.3 | |||||||||
| 05:20 | 7.0 | 92.7 | 1013.9 | 1.0 | ESE | 3.1 | ESE | 0.0 | 16.7 | |||||||||
| 05:30 | 7.0 | 92.6 | 1013.9 | 1.9 | SE | 5.8 | ESE | 0.0 | 20.1 | |||||||||
| 05:40 | 7.3 | 92.2 | 1014.1 | 2.8 | ESE | 6.8 | ESE | 0.0 | 60.5 | |||||||||
| 05:50 | 8.0 | 89.6 | 1014.1 | 2.2 | SE | 5.6 | SE | 0.0 | 40.4 | |||||||||
| 06:00 | 8.6 | 85.3 | 1014.2 | 2.1 | SE | 3.5 | SE | 0.0 | 89.4 | |||||||||
| 06:10 | 9.0 | 84.6 | 1014.2 | 1.2 | SSE | 3.1 | SSE | 0.0 | 201.0 | |||||||||
| 06:20 | 10.1 | 82.3 | 1014.2 | 0.5 | WNW | 3.3 | N | 0.0 | 74.1 | |||||||||
| 06:30 | 10.2 | 82.5 | 1014.2 | 0.9 | W | 3.8 | S | 0.0 | 69.7 | |||||||||
| 06:40 | 10.3 | 82.1 | 1014.2 | 1.2 | SSW | 4.2 | S | 0.0 | 235.1 | |||||||||
| 06:50 | 10.7 | 81.2 | 1014.3 | 3.3 | S | 5.2 | S | 0.0 | 333.7 | |||||||||
| 07:00 | 11.3 | 79.7 | 1014.4 | 3.7 | S | 6.4 | S | 0.0 | 365.1 | |||||||||
| 07:10 | 11.6 | 79.1 | 1014.6 | 6.5 | S | 12.2 | S | 0.0 | 397.5 | |||||||||
| 07:20 | 11.8 | 78.2 | 1014.7 | 6.9 | S | 11.8 | SSW | 0.0 | 429.0 | |||||||||
| 07:30 | 12.1 | 77.5 | 1014.8 | 7.8 | SSW | 15.9 | S | 0.0 | 465.1 | |||||||||
| 07:40 | 12.5 | 76.3 | 1014.8 | 7.8 | SSW | 15.5 | SSW | 0.0 | 495.5 | |||||||||
| 07:50 | 13.0 | 75.9 | 1014.7 | 5.6 | SSW | 12.0 | SW | 0.0 | 536.2 | |||||||||
| 08:00 | 13.0 | 74.8 | 1014.7 | 6.4 | S | 11.8 | SSW | 0.0 | 554.9 | |||||||||
| 08:10 | 13.3 | 74.3 | 1014.6 | 6.6 | S | 13.4 | SE | 0.0 | 606.9 | |||||||||
| 08:20 | 13.4 | 72.9 | 1014.6 | 7.1 | SSW | 16.0 | S | 0.0 | 631.5 | |||||||||
| 08:30 | 14.1 | 71.5 | 1014.6 | 7.9 | S | 15.4 | S | 0.0 | 751.2 | |||||||||
| 08:40 | 14.6 | 69.1 | 1014.6 | 8.3 | SSW | 16.0 | S | 0.0 | 670.9 | |||||||||
| 08:50 | 14.7 | 68.0 | 1014.5 | 8.4 | SSW | 15.2 | SSW | 0.0 | 675.3 | |||||||||
| 09:00 | 14.8 | 67.4 | 1014.5 | 7.4 | SSW | 14.5 | S | 0.0 | 749.1 | |||||||||
| 09:10 | 15.2 | 65.1 | 1014.6 | 7.7 | S | 16.6 | SSE | 0.0 | 756.4 | |||||||||
| 09:20 | 14.1 | 66.4 | 1014.7 | 5.7 | SSW | 15.4 | SSW | 0.0 | 308.5 | |||||||||
| 09:30 | 13.8 | 67.5 | 1014.8 | 8.1 | S | 16.3 | SSW | 0.0 | 637.7 | |||||||||
| 09:40 | 15.3 | 63.4 | 1014.8 | 7.3 | S | 14.2 | SSW | 0.0 | 858.0 | |||||||||
| 09:50 | 15.4 | 61.3 | 1014.9 | 9.4 | S | 19.9 | SSE | 0.0 | 811.0 | |||||||||
| 10:00 | 15.5 | 59.8 | 1014.6 | 6.7 | S | 15.8 | SSW | 0.0 | 841.0 | |||||||||
| 10:10 | 16.5 | 55.5 | 1014.6 | 5.9 | SSW | 16.0 | SSW | 0.0 | 919.0 | |||||||||
| 10:20 | 16.3 | 55.3 | 1014.5 | 8.0 | SSW | 15.5 | S | 0.0 | 762.2 | |||||||||
| 10:30 | 15.7 | 58.6 | 1014.5 | 8.3 | S | 16.8 | SW | 0.0 | 697.5 | |||||||||
| 10:40 | 16.0 | 59.0 | 1014.6 | 7.9 | SSW | 20.0 | SSW | 0.0 | 908.0 | |||||||||
| 10:50 | 16.8 | 55.7 | 1014.5 | 6.6 | SSW | 15.1 | S | 0.0 | 942.0 | |||||||||
| 11:00 | 16.0 | 56.8 | 1014.5 | 4.9 | S | 13.9 | S | 0.0 | 304.8 | |||||||||
| 11:10 | 15.2 | 59.1 | 1014.3 | 5.2 | SSW | 15.4 | WSW | 0.0 | 634.3 | |||||||||
| 11:20 | 16.1 | 57.8 | 1014.2 | 5.7 | SW | 16.9 | SSW | 0.0 | 669.2 | |||||||||
| 11:30 | 16.1 | 58.9 | 1014.2 | 7.7 | S | 15.8 | S | 0.0 | 477.4 | |||||||||
| 11:40 | 16.2 | 59.5 | 1014.0 | 6.0 | SSW | 11.8 | S | 0.0 | 855.0 | |||||||||
| 11:50 | 17.0 | 57.2 | 1014.0 | 6.9 | S | 18.9 | S | 0.0 | 578.2 | |||||||||
| 12:00 | 16.1 | 56.8 | 1013.9 | 3.9 | SW | 10.0 | SSE | 0.0 | 451.1 | |||||||||
| 12:10 | 17.0 | 54.9 | 1013.9 | 5.3 | SSW | 17.8 | SSW | 0.0 | 590.0 | |||||||||
| 12:20 | 16.3 | 57.7 | 1013.9 | 5.8 | SSW | 16.0 | SSW | 0.0 | 519.2 | |||||||||
| 12:30 | 17.2 | 57.1 | 1013.9 | 7.6 | SSW | 18.1 | SSW | 0.0 | 822.0 | |||||||||
| 12:40 | 16.8 | 56.7 | 1013.8 | 7.0 | SW | 18.7 | SSW | 0.0 | 555.3 | |||||||||
| 12:50 | 16.8 | 63.1 | 1013.8 | 8.2 | SSW | 19.9 | SSW | 0.0 | 573.6 | |||||||||
| 13:00 | 16.4 | 64.1 | 1013.8 | 9.2 | S | 23.9 | SSW | 0.0 | 799.6 | |||||||||
| 13:10 | 15.5 | 68.3 | 1013.7 | 12.0 | SSE | 23.5 | SSE | 0.0 | 694.8 | |||||||||
| 13:20 | 15.3 | 68.1 | 1013.5 | 16.5 | SE | 28.1 | SE | 0.0 | 866.0 | |||||||||
| 13:30 | 15.1 | 68.2 | 1013.5 | 13.0 | SSE | 25.4 | SE | 0.0 | 824.0 | |||||||||
| 13:40 | 15.7 | 66.3 | 1013.3 | 11.7 | SSE | 20.7 | SE | 0.0 | 843.0 | |||||||||
| 13:50 | 15.9 | 65.2 | 1013.3 | 11.3 | SSE | 23.2 | SSE | 0.0 | 829.0 | |||||||||
| 14:00 | 16.4 | 64.1 | 1013.1 | 9.5 | S | 20.6 | S | 0.0 | 847.0 | |||||||||
| 14:10 | 17.0 | 62.0 | 1013.1 | 9.4 | SSW | 20.5 | S | 0.0 | 784.2 | |||||||||
| 14:20 | 16.7 | 62.9 | 1013.1 | 9.4 | SSE | 17.1 | SW | 0.0 | 722.9 | |||||||||
| 14:30 | 16.3 | 62.7 | 1012.8 | 8.2 | SSE | 19.9 | SE | 0.0 | 744.1 | |||||||||
| 14:40 | 16.1 | 63.0 | 1012.9 | 7.7 | S | 19.8 | SSW | 0.0 | 530.9 | |||||||||
| 14:50 | 16.1 | 62.8 | 1012.8 | 9.0 | SSW | 19.8 | SSW | 0.0 | 530.5 | |||||||||
| 15:00 | 16.4 | 63.3 | 1012.8 | 7.2 | SSW | 16.1 | SW | 0.0 | 618.1 | |||||||||
| 15:10 | 16.6 | 63.3 | 1012.7 | 6.9 | SSW | 16.2 | S | 0.0 | 412.8 | |||||||||
| 15:20 | 16.5 | 62.4 | 1012.6 | 8.2 | SSW | 20.7 | SW | 0.0 | 546.8 | |||||||||
| 15:30 | 16.6 | 61.8 | 1012.6 | 8.9 | SSW | 17.5 | SW | 0.0 | 623.4 | |||||||||
| 15:40 | 16.8 | 62.2 | 1012.6 | 8.7 | SW | 25.2 | SSW | 0.0 | 521.3 | |||||||||
| 15:50 | 16.1 | 63.2 | 1012.5 | 14.1 | SSW | 27.3 | S | 0.0 | 551.1 | |||||||||
| 16:00 | 15.6 | 66.0 | 1012.6 | 10.6 | SSE | 21.3 | SSE | 0.0 | 520.7 | |||||||||
| 16:20 | 14.3 | 70.2 | 1012.6 | 11.6 | SSE | 25.8 | SSE | 0.0 | 377.3 | |||||||||
| 16:30 | 14.5 | 69.9 | 1012.6 | 9.0 | SE | 23.5 | SE | 0.0 | 386.9 | |||||||||
| 16:40 | 14.1 | 70.6 | 1012.6 | 8.6 | SE | 17.4 | ESE | 0.0 | 310.3 | |||||||||
| 16:50 | 13.8 | 71.4 | 1012.6 | 9.2 | SE | 21.5 | SE | 0.0 | 306.1 | |||||||||
| 17:00 | 13.7 | 72.2 | 1012.6 | 8.0 | SE | 17.1 | SE | 0.0 | 301.9 | |||||||||
| 17:10 | 14.1 | 71.3 | 1012.7 | 5.6 | SE | 13.1 | SE | 0.0 | 313.6 | |||||||||
| 17:20 | 14.5 | 69.8 | 1012.7 | 5.2 | SSE | 12.3 | SE | 0.0 | 307.1 | |||||||||
| 17:30 | 14.3 | 70.2 | 1012.8 | 7.5 | S | 17.1 | SSW | 0.0 | 278.6 | |||||||||
| 17:40 | 13.6 | 71.7 | 1013.0 | 6.4 | S | 14.9 | SSE | 0.0 | 200.8 | |||||||||
| 17:50 | 13.1 | 73.4 | 1013.0 | 7.4 | S | 18.0 | ESE | 0.0 | 100.5 | |||||||||
| 18:00 | 12.9 | 74.4 | 1013.1 | 7.1 | SSE | 15.6 | SE | 0.0 | 78.7 | |||||||||
| 18:10 | 12.5 | 74.2 | 1013.2 | 3.9 | SSE | 9.4 | SE | 0.0 | 65.1 | |||||||||
| 18:20 | 12.6 | 74.0 | 1013.3 | 0.8 | WSW | 4.0 | SW | 0.0 | 52.4 | |||||||||
| 18:30 | 12.5 | 74.7 | 1013.4 | 1.5 | S | 5.9 | S | 0.0 | 37.9 | |||||||||
| 18:40 | 12.3 | 75.9 | 1013.6 | 1.4 | SW | 6.9 | W | 0.0 | 29.1 | |||||||||
| 18:50 | 12.0 | 76.1 | 1013.7 | 3.8 | WSW | 8.8 | SW | 0.0 | 15.5 | |||||||||
| 19:00 | 11.5 | 77.8 | 1013.9 | 3.0 | W | 6.1 | WSW | 0.0 | 4.9 | |||||||||
| 19:10 | 11.4 | 78.6 | 1013.9 | 1.8 | SW | 6.9 | SW | 0.0 | 0.9 | |||||||||
| 19:20 | 11.3 | 78.8 | 1014.0 | 1.2 | S | 3.5 | S | 0.0 | 0.2 | |||||||||
| 19:30 | 10.9 | 79.9 | 1014.1 | 0.4 | N | 2.7 | N | 0.0 | 0.0 | |||||||||
| 19:40 | 10.3 | 81.9 | 1014.2 | 0.7 | NNE | 2.5 | NNW | 0.0 | 0.0 | |||||||||
| 19:50 | 10.2 | 83.3 | 1014.4 | 0.3 | ENE | 2.5 | SE | 0.0 | 0.0 | |||||||||
| 20:00 | 10.3 | 83.0 | 1014.5 | 3.1 | ENE | 4.8 | ENE | 0.0 | 0.0 | |||||||||
| 20:10 | 10.2 | 83.1 | 1014.7 | 0.6 | NE | 2.6 | ENE | 0.0 | 0.0 | |||||||||
| 20:20 | 10.1 | 82.9 | 1014.8 | 0.7 | E | 3.1 | SE | 0.0 | 0.0 | |||||||||
| 20:30 | 10.1 | 83.8 | 1014.8 | 0.0 | NNE | 0.0 | 0.0 | 0.0 | ||||||||||
| 20:40 | 10.2 | 84.1 | 1014.9 | 1.0 | ESE | 4.0 | ESE | 0.0 | 0.0 | |||||||||
| 20:50 | 10.1 | 83.9 | 1014.9 | 1.2 | E | 2.6 | ESE | 0.0 | 0.0 | |||||||||
| Máxima | 17.2 | 92.9 | 1014.9 | 16.5 | SE | 28.1 | SE | 0.0 | 942.0 | |||||||||
| Mínima | 6.6 | 54.9 | 1012.5 | |||||||||||||||
| Total | 0.0 | |||||||||||||||||